This demonstration page uses our WeatherBlox Daily Observations layout. Learn more.

Left ArrowRight Arrow

39.51506, -84.39828

Hourly Observations for June 18, 2021

Temp ( °F °C ) Dew Point ( °F °C ) Humidity (%) Winds ( mph kmh ) Pressure ( in mb ) Visibility ( mi km ) Precip ( " mm )
12:15 am 00:15 Clear 64 17.5 62 16.7 95 95 N N/A 30.01 1016 10 16 N/A
12:35 am 00:35 Clear 62 16.9 62 16.4 97 97 N N/A 30.00 1016 10 16 N/A
12:55 am 00:55 Clear 62 16.6 62 16.5 99 99 W 3 6 30.00 1016 10 16 N/A
1:15 am 01:15 Clear 62 16.5 61 16.2 98 98 N N/A 29.99 1016 10 16 N/A
1:35 am 01:35 Clear 62 16.8 61 16.3 97 97 N N/A 29.99 1016 10 16 N/A
1:55 am 01:55 Clear 61 16.3 61 16 98 98 W 5 7 30.01 1016 10 16 N/A
2:15 am 02:15 Clear 61 16.3 61 16.1 99 99 NNW 3 6 30.00 1016 10 16 N/A
2:35 am 02:35 Clear 61 16 61 16 100 100 N N/A 29.99 1016 10 16 N/A
2:55 am 02:55 Clear 59 15 59 15 100 100 NW 5 7 29.99 1015 10 16 N/A
3:15 am 03:15 Clear 59 15 N/A N/A N N/A 29.99 1015 10 16 N/A
3:35 am 03:35 Clear 59 15 N/A N/A N N/A 29.97 1015 10 16 N/A
3:55 am 03:55 Clear 59 15 N/A N/A NW 3 6 29.97 1015 10 16 N/A
4:15 am 04:15 Clear 59 15 N/A N/A NW 3 6 29.97 1015 10 16 N/A
4:35 am 04:35 Clear 61 16 N/A N/A N N/A 29.95 1014 10 16 N/A
4:55 am 04:55 Clear 59 15 N/A N/A N N/A 29.95 1014 10 16 N/A
5:15 am 05:15 Clear 59 15 N/A N/A WNW 3 6 29.95 1014 10 16 N/A
5:35 am 05:35 Clear 59 15 N/A N/A N N/A 29.95 1014 10 16 N/A
5:55 am 05:55 Clear 61 16 N/A N/A N N/A 29.96 1015 10 16 N/A
6:15 am 06:15 Sunny 61 16 N/A N/A N N/A 29.96 1015 10 16 N/A
6:35 am 06:35 Sunny 61 16 N/A N/A N N/A 29.96 1015 10 16 N/A
6:55 am 06:55 Sunny 61 16 N/A N/A N N/A 29.96 1015 10 16 N/A
7:15 am 07:15 Sunny 63 17 N/A N/A N N/A 29.96 1015 10 16 N/A
7:35 am 07:35 Sunny 64 18 N/A N/A N N/A 29.96 1015 10 16 N/A
7:55 am 07:55 Sunny 67 19.5 66 19.1 98 98 SW 5 7 29.95 1014 10 16 N/A
8:15 am 08:15 Sunny 70 21.2 63 17.4 79 79 SSW 9 15 29.94 1014 10 16 N/A
8:35 am 08:35 Sunny 71 21.7 63 17.2 76 76 SW 8 13 29.94 1014 10 16 N/A
8:55 am 08:55 Sunny 72 22.1 63 17 73 73 SSW 8 13 29.94 1014 10 16 N/A
9:15 am 09:15 Sunny 73 23 64 17.8 73 73 SW 6 9 29.94 1014 10 16 N/A
9:35 am 09:35 Partly Cloudy 74 23.6 65 18.2 72 72 SW 7 11 29.95 1014 10 16 N/A
9:55 am 09:55 Sunny 73 23 64 18 74 74 SW 6 9 29.96 1014 10 16 N/A
10:15 am 10:15 Sunny 74 23.2 65 18.6 75 75 SSW 8 13 29.95 1014 10 16 N/A
10:35 am 10:35 Partly Cloudy 74 23.2 66 18.7 76 76 SSW 7 11 29.95 1014 10 16 N/A
10:55 am 10:55 Cloudy with Strong Thunderstorms 71 21.4 67 19.5 89 89 NNW 13 20 30.03 1017 3 4 0.09 2.29
11:15 am 11:15 Cloudy with Strong Thunderstorms 68 20 68 20 100 100 SSE 9 15 29.98 1015 1 2 0.44 11.18
11:35 am 11:35 Sunny with Nearby Thunderstorms 68 20 N/A N/A S 7 11 29.96 1015 7 11 0.44 11.18
11:55 am 11:55 Sunny with Thunderstorms 68 20 N/A N/A S 8 13 29.93 1014 10 16 0.44 11.18
12:15 pm 12:15 Sunny with Thunderstorms 68 20 N/A N/A S 7 11 29.91 1013 7 11 N/A
12:35 pm 12:35 Partly Cloudy 68 20 N/A N/A S 14 22 29.89 1012 10 16 N/A
12:55 pm 12:55 Sunny 70 21 N/A N/A SSW 5 7 29.91 1013 10 16 N/A
1:15 pm 13:15 Sunny 71 21.8 70 21.3 97 97 S 7 11 29.91 1013 10 16 N/A
1:35 pm 13:35 Sunny with Nearby Thunderstorms 73 22.8 71 21.5 92 92 S 7 11 29.91 1013 10 16 N/A
1:55 pm 13:55 Sunny 76 24.3 72 22 87 87 SSW 9 15 29.90 1013 10 16 N/A
2:15 pm 14:15 Sunny 78 25.8 73 22.5 82 82 S 14 22 29.90 1013 10 16 N/A
2:35 pm 14:35 Sunny 81 27 73 22.8 78 78 SSW 12 19 29.89 1012 10 16 N/A
2:55 pm 14:55 Sunny 82 27.6 73 22.5 74 74 SSW 20 31 29.88 1012 10 16 N/A
3:15 pm 15:15 Sunny 83 28.5 74 23.1 73 73 SSW 14 22 29.86 1011 10 16 N/A
3:35 pm 15:35 Sunny 84 29 74 23.1 71 71 SSW 21 33 29.83 1010 10 16 N/A
3:55 pm 15:55 Sunny 86 29.9 75 23.7 69 69 SSW 16 26 29.81 1010 10 16 N/A
4:15 pm 16:15 Sunny 87 30.3 75 23.9 69 69 SSW 16 26 29.82 1010 10 16 N/A
4:35 pm 16:35 Sunny 88 30.9 76 24.3 68 68 SSW 17 28 29.79 1009 10 16 N/A
4:55 pm 16:55 Partly Cloudy 88 31.2 76 24.2 66 66 SSW 16 26 29.78 1008 10 16 N/A
5:15 pm 17:15 Mostly Cloudy 88 31 75 24.1 67 67 SSW 20 31 29.79 1009 10 16 N/A
5:35 pm 17:35 Partly Cloudy with Nearby Thunderstorms 88 31.3 74 23.6 64 64 SW 16 26 29.78 1008 10 16 N/A
5:55 pm 17:55 Partly Cloudy 88 31.3 75 23.9 65 65 SW 17 28 29.77 1008 10 16 N/A
6:15 pm 18:15 Sunny with Nearby Thunderstorms 89 31.7 75 24.1 64 64 SSW 14 22 29.77 1008 10 16 N/A
6:35 pm 18:35 Partly Cloudy 89 31.6 75 24 64 64 SW 16 26 29.79 1009 10 16 N/A
6:55 pm 18:55 Partly Cloudy with Nearby Thunderstorms 87 30.8 74 23.4 65 65 SW 22 35 29.76 1008 10 16 N/A
7:15 pm 19:15 Sunny with Thunderstorms 88 30.9 74 23.5 65 65 SW 15 24 29.77 1008 10 16 N/A
7:35 pm 19:35 Sunny with Thunderstorms 87 30.3 74 23.6 67 67 SSW 13 20 29.75 1007 10 16 N/A
7:55 pm 19:55 Partly Cloudy with Thunderstorms 86 30 74 23.5 68 68 SSW 13 20 29.77 1008 10 16 N/A
8:15 pm 20:15 Partly Cloudy with Thunderstorms 85 29.5 74 23.3 69 69 SW 14 22 29.78 1009 10 16 N/A
8:35 pm 20:35 Partly Cloudy with Thunderstorms 85 29.5 74 23.1 68 68 SW 17 28 29.75 1008 10 16 N/A
8:55 pm 20:55 Mostly Cloudy with Strong Thunderstorms 79 26 70 21 74 74 NNE 37 59 29.87 1012 3 4 0.24 6.10
9:15 pm 21:15 Cloudy with Strong Thunderstorms 66 19 N/A N/A NE 13 20 29.91 1013 2 2 0.68 17.27
9:35 pm 21:35 Cloudy with Thunderstorms 66 19 N/A N/A SSW 3 6 29.94 1014 10 16 0.69 17.53
9:55 pm 21:55 Partly Cloudy 66 19 N/A N/A S 12 19 29.92 1013 10 16 0.71 18.03
10:15 pm 22:15 Clear 66 19 N/A N/A SSE 9 15 29.91 1013 10 16 N/A
10:35 pm 22:35 Partly Cloudy with Thunderstorms 68 20 N/A N/A SSW 6 9 29.90 1013 10 16 N/A
10:55 pm 22:55 Partly Cloudy 68 20 N/A N/A SSW 7 11 29.91 1013 10 16 N/A
11:15 pm 23:15 Partly Cloudy with Nearby Thunderstorms 68 20 N/A N/A SSW 8 13 29.91 1013 10 16 N/A
11:35 pm 23:35 Mostly Cloudy with Thunderstorms 68 20 N/A N/A WNW 7 11 29.91 1013 10 16 N/A
11:55 pm 23:55 Cloudy 68 20 N/A N/A S 9 15 29.92 1013 7 11 0.08 2.03

Powered by AerisWeather